Flag for Canada Weather past 2 weeks in Coquitlam, British Columbia, Canada

Now
60 °F

Cool.


Feels Like: 60 °F
Forecast: 60 / 70 °F
Wind: 3 mph from East

Location: P. Meadows Coastal Station

Current Time: Aug 28, 2014 at 4:43:12 AM

Latest Report: Aug 28, 2014 at 4:00 AM


Visibility: N/A

Pressure: 30.02 "Hg

Humidity: 87%

Dew point: 56 °F

Location of CoquitlamLocation

Historic Weather in Coquitlam — Graph

°F

Coquitlam temperature yesterday

Maximum temperature yesterday: 82 °F (at 4:00 PM)
Minimum temperature yesterday: 60 °F (at 6:00 AM)
Average temperature yesterday: 71 °F

Past Weeks' High & Low Weather Summary

 TemperatureHumidityPressure
High84 °F (Aug 26, 5:00 PM)100% (Aug 17, 1:00 AM)30.15 "Hg (Aug 17, 1:00 AM)
Low53 °F (Aug 22, 3:00 AM)32% (Aug 23, 6:00 PM)29.75 "Hg (Aug 19, 7:00 PM)
Average67 °F76%29.99 "Hg
* Reported Aug 13 3:00 AM — Aug 28 3:00 AM, Coquitlam, Weather by CustomWeather, © 2014

Note: Actual official high and low records may vary slightly from our data, if they occured in-between our weather recording intervals... More about our weather records

Advertising

Coquitlam weather history for previous 24 hours

 ConditionsComfort  
Time TempWeatherWind HumidityBarometerVisibility
3:00 AM
Aug 28
59 °FCool.2 mph87%30.00 "HgN/A
2:00 AM61 °FCool.3 mph80%29.99 "HgN/A
1:00 AM63 °FMild.2 mph79%29.98 "HgN/A
12:00 AM66 °FMild.3 mph76%29.98 "HgN/A
11:00 PM
Aug 27
66 °FMild.2 mph79%29.98 "HgN/A
10:00 PM68 °FMild.1 mph75%29.98 "HgN/A
9:00 PM69 °FMild.1 mph72%29.98 "HgN/A
8:00 PM72 °FMild.2 mph62%29.97 "HgN/A
7:00 PM77 °FWarm.3 mph52%29.97 "HgN/A
6:00 PM80 °FWarm.5 mph50%29.98 "HgN/A
5:00 PM81 °FWarm.6 mph47%29.98 "HgN/A
4:00 PM82 °FWarm.6 mph47%29.99 "HgN/A
3:00 PM82 °FWarm.5 mph45%30.00 "HgN/A
2:00 PM81 °FWarm.5 mph47%30.01 "HgN/A
1:00 PM79 °FWarm.6 mph51%30.02 "HgN/A
12:00 PM78 °FWarm.2 mph56%30.03 "HgN/A
11:00 AM76 °FMild.2 mph58%30.03 "HgN/A
10:00 AM72 °FMild.2 mph67%30.03 "HgN/A
9:00 AM69 °FMild.No wind78%30.03 "HgN/A
8:00 AM64 °FMild.1 mph93%30.03 "HgN/A
7:00 AM61 °FCool.1 mph96%30.02 "HgN/A
6:00 AM60 °FCool.No wind96%30.01 "HgN/A
5:00 AM61 °FCool.1 mph97%30.00 "HgN/A
4:00 AM61 °FCool.No wind96%30.00 "HgN/A
Weather by CustomWeather, © 2014

See weather overviewHow to use our weather pages